Location: Prairie Dale
(45.6972°N, 104.5033°W)
Time: 22:26:48
(UTC+00:00)

STARS - Pass Details

Date: 01 July 2022
Orbit: 620 x 637 km, 98.2° (Epoch: 07 August)

Event Time Altitude Azimuth Distance (km) Brightness Sun altitude
Rises 06:22:21 0° 6° (N) 2,934 ? -20.6°
Reaches altitude 10° 06:24:40 10° 359° (N) 2,019 ? -20.7°
Maximum altitude 06:28:44 38° 291° (WNW) 955 ? -20.8°
Enters shadow 06:30:44 24° 240° (WSW) 1,290 ? -20.8°
